ASIASAT 5

导读

ASIASAT 5是由ASTC发射、亚洲卫星公司运营的通信卫星,由波音公司制造,于北京时间2009年8月11日8点顺利升空。该卫星定点于东经105.5度地球同步轨道,搭载24个C波段和12个Ku波段转发器,面向中国、东南亚及南亚区域,提供广播电视传输与企业宽带通信服务,长期稳定服务区域媒体与通信领域,截至目前已在轨服役超16年,是亚洲地区重要的通信基础设施。

Basic Information
目录编号:
35696
目录名称:
ASIASAT 5
国际标识:
2009-042A
轨道中心:
EARTH
卫星名称:
ASIASAT 5
卫星全名:
--
卫星状态:
在轨 (已飞行6181 天)
发射日期:
2009-08-11 UTC
国别 :
(ASTC)
星等 :
--
Orbit Information
数据来源 国际轨道数据 AOE轨道数据
星历时间 2026-07-14T05:34:20+0800
9小时前
查看轨道信息
2026-07-12T23:00:00+0800
1天前
查看轨道信息
半长轴 42164.308km 42164.027km
偏心率 0.0001605 0.0001799
轨道倾角 0.004° 0.017°
近地点辐角 119.132° 305.274°
升交点赤经 329.140° 134.547°
平近点角 267.587° 176.192°
近地点 35779.403km 35778.304km
远地点 35792.939km 35793.476km
周期 1436.075分钟 1436.061分钟
每日圈数 1.002733 1.002743
Detailed Information
使用方式:
暂无
2D Orbit Map
3D Orbit Map
Orbit Altitude Analysis Chart
Orbit Inclination Analysis Chart
Orbit Comprehensive Analysis Chart
View Comprehensive Chart